DW6599 Weather Reports


Display with metric or nautical units.
time (UTC)temp
F
wind
direction
speed
MPH
gust
MPH
rain 1hr
in
rain 24hr
in
rain mn
in
humidity
%
barometer
mb
20260505073401 75 190 15.0 28.0 0.00 0.00 0.00 66 1001.6
20260505072901 75 190 13.0 28.0 0.00 0.00 0.00 66 1001.8
20260505072401 75 190 13.0 28.0 0.00 0.00 0.00 66 1001.9
20260505071900 75 190 13.0 28.0 0.00 0.00 0.00 66 1002.0
20260505071401 75 190 13.0 28.0 0.00 0.00 0.00 66 1002.1
20260505070901 75 190 13.0 28.0 0.00 0.00 0.00 66 1002.2
20260505070401 75 190 13.0 28.0 0.00 0.00 0.00 66 1002.2
20260505065901 75 190 12.0 23.0 0.00 0.00 0.00 66 1002.4
20260505065401 75 190 12.0 23.0 0.00 0.00 0.00 66 1002.3
20260505064401 75 190 12.0 18.0 0.00 0.00 0.00 66 1002.5
20260505063900 75 190 12.0 18.0 0.00 0.00 0.00 66 1002.6
20260505063400 75 190 12.0 23.0 0.00 0.00 0.00 66 1002.7
20260505062901 75 190 12.0 23.0 0.00 0.00 0.00 66 1002.7
20260505062401 75 190 12.0 23.0 0.00 0.00 0.00 66 1002.7
20260505061901 75 190 12.0 23.0 0.00 0.00 0.00 66 1002.7
20260505060901 75 190 12.0 23.0 0.00 0.00 0.00 66 1002.7
20260505060401 75 190 12.0 23.0 0.00 0.00 0.00 66 1002.6
20260505055901 75 180 14.0 23.0 0.00 0.00 0.00 66 1002.7
20260505055401 75 180 14.0 23.0 0.00 0.00 0.00 66 1002.7
20260505054901 75 180 14.0 26.0 0.00 0.00 0.00 66 1002.8
20260505054401 75 180 12.0 26.0 0.00 0.00 0.00 66 1002.8
20260505053401 75 180 12.0 26.0 0.00 0.00 0.00 66 1002.9
20260505052901 75 180 15.0 23.0 0.00 0.00 0.00 66 1002.9
20260505052401 75 180 15.0 23.0 0.00 0.00 0.00 66 1003.0
20260505051901 75 180 15.0 23.0 0.00 0.00 0.00 66 1003.0
20260505050901 75 180 15.0 23.0 0.00 0.00 0.00 66 1003.2
20260505050401 75 180 15.0 25.0 0.00 0.00 0.00 66 1003.2
20260505041401 75 170 12.0 25.0 0.00 0.00 0.00 66 1003.4
20260505040902 75 170 12.0 25.0 0.00 0.00 0.00 66 1003.4
20260505040401 75 170 12.0 25.0 0.00 0.00 0.00 66 1003.3
20260505035901 75 170 14.0 25.0 0.00 0.00 0.00 66 1003.3
20260505035402 75 170 14.0 25.0 0.00 0.00 0.00 66 1003.2
20260505034901 75 170 14.0 25.0 0.00 0.00 0.00 66 1003.2
20260505033901 75 170 12.0 12.0 0.00 0.00 0.00 66 1003.3
20260505033401 75 170 12.0 13.0 0.00 0.00 0.00 66 1003.4
20260505031901 75 170 13.0 13.0 0.00 0.00 0.00 66 1003.4
20260505031401 75 170 13.0 13.0 0.00 0.00 0.00 66 1003.5
20260505030901 75 170 13.0 13.0 0.00 0.00 0.00 66 1003.4
20260505030401 75 170 13.0 13.0 0.00 0.00 0.00 66 1003.5
20260505025901 75 170 10.0 10.0 0.00 0.00 0.00 66 1003.5
20260505025401 75 170 10.0 10.0 0.00 0.00 0.00 66 1003.4
20260505024902 75 170 10.0 10.0 0.00 0.00 0.00 66 1003.4
20260505024401 75 170 9.0 9.0 0.00 0.00 0.00 66 1003.4
20260505023901 75 170 9.0 9.0 0.00 0.00 0.00 66 1003.4
20260505023401 75 170 9.0 20.0 0.00 0.00 0.00 66 1003.5
20260505022901 75 170 12.0 20.0 0.00 0.00 0.00 66 1003.5
20260505022401 75 170 12.0 20.0 0.00 0.00 0.00 66 1003.5
20260505021901 75 170 12.0 20.0 0.00 0.00 0.00 66 1003.5
20260505021401 75 170 12.0 20.0 0.00 0.00 0.00 66 1003.4
20260505020401 75 170 12.0 20.0 0.00 0.00 0.00 66 1003.5
20260505015901 75 160 9.0 9.0 0.00 0.00 0.00 66 1003.5
20260505015401 75 160 9.0 9.0 0.00 0.00 0.00 66 1003.3
20260505014902 75 160 9.0 9.0 0.00 0.00 0.00 66 1003.2
20260505013902 75 170 9.0 9.0 0.00 0.00 0.00 66 1003.2
20260505013401 75 170 9.0 20.0 0.00 0.00 0.00 66 1003.2
20260505012402 75 170 10.0 20.0 0.00 0.00 0.00 66 1003.2
20260505011901 75 170 10.0 20.0 0.00 0.00 0.00 65 1003.2
20260505011402 75 170 10.0 20.0 0.00 0.00 0.00 65 1003.1
20260505010901 76 170 10.0 20.0 0.00 0.00 0.00 65 1003.1
20260505010401 76 170 10.0 20.0 0.00 0.00 0.00 64 1003.0
20260505005901 76 170 12.0 12.0 0.00 0.00 0.00 64 1003.0
20260505005401 76 170 12.0 12.0 0.00 0.00 0.00 64 1002.9
20260505004902 76 170 12.0 21.0 0.00 0.00 0.00 64 1002.9
20260505004401 77 170 13.0 21.0 0.00 0.00 0.00 63 1002.9
20260505003901 77 170 13.0 21.0 0.00 0.00 0.00 63 1003.0
20260505003402 77 170 13.0 23.0 0.00 0.00 0.00 63 1003.1
20260505001401 78 170 14.0 23.0 0.00 0.00 0.00 61 1003.1
20260505000901 78 170 14.0 23.0 0.00 0.00 0.00 61 1003.2
20260504235901 78 170 14.0 20.0 0.00 0.00 0.00 60 1003.2
20260504235402 78 170 14.0 20.0 0.00 0.00 0.00 60 1003.2
20260504234901 78 170 14.0 28.0 0.00 0.00 0.00 59 1003.3
20260504233901 79 160 15.0 28.0 0.00 0.00 0.00 58 1003.5
20260504232901 80 170 18.0 28.0 0.00 0.00 0.00 57 1003.5
20260504231901 80 170 18.0 28.0 0.00 0.00 0.00 56 1003.6
20260504231401 81 170 18.0 28.0 0.00 0.00 0.00 55 1003.6
20260504230902 81 170 18.0 28.0 0.00 0.00 0.00 55 1003.8
20260504230401 81 170 18.0 29.0 0.00 0.00 0.00 55 1003.8
20260504225902 81 170 16.0 29.0 0.00 0.00 0.00 54 1003.7
20260504224902 82 170 16.0 29.0 0.00 0.00 0.00 54 1003.7
20260504223902 82 170 16.0 25.0 0.00 0.00 0.00 53 1003.8
20260504223401 82 170 16.0 25.0 0.00 0.00 0.00 52 1003.8
20260504222902 82 180 13.0 25.0 0.00 0.00 0.00 54 1003.8
20260504222402 82 180 13.0 25.0 0.00 0.00 0.00 53 1003.7
20260504221401 82 180 13.0 25.0 0.00 0.00 0.00 52 1003.9
20260504220901 82 180 13.0 25.0 0.00 0.00 0.00 52 1003.9
20260504215901 83 180 10.0 26.0 0.00 0.00 0.00 54 1004.1
20260504215401 82 180 10.0 26.0 0.00 0.00 0.00 53 1004.1
20260504214902 82 180 10.0 28.0 0.00 0.00 0.00 54 1004.2
20260504213901 82 180 17.0 28.0 0.00 0.00 0.00 53 1004.4
20260504213401 82 180 17.0 32.0 0.00 0.00 0.00 54 1004.5
20260504212901 82 180 18.0 32.0 0.00 0.00 0.00 53 1004.6
20260504212402 82 180 18.0 32.0 0.00 0.00 0.00 54 1004.8
20260504211902 82 180 18.0 32.0 0.00 0.00 0.00 53 1004.9
20260504211401 82 180 18.0 32.0 0.00 0.00 0.00 55 1005.1
20260504210901 82 180 18.0 32.0 0.00 0.00 0.00 52 1005.1
20260504210402 82 180 18.0 32.0 0.00 0.00 0.00 52 1005.3
20260504205902 82 190 18.0 18.0 0.00 0.00 0.00 53 1005.3
20260504205402 82 190 18.0 18.0 0.00 0.00 0.00 53 1005.4
20260504204902 82 190 18.0 26.0 0.00 0.00 0.00 52 1005.5
20260504204401 82 180 14.0 26.0 0.00 0.00 0.00 52 1005.4
20260504203901 82 180 14.0 26.0 0.00 0.00 0.00 52 1005.4
20260504203402 82 180 14.0 32.0 0.00 0.00 0.00 52 1005.7
20260504202902 81 180 16.0 32.0 0.00 0.00 0.00 53 1005.8
20260504202401 81 180 16.0 32.0 0.00 0.00 0.00 54 1005.8
20260504201902 81 180 16.0 32.0 0.00 0.00 0.00 53 1005.9
20260504201402 81 180 16.0 32.0 0.00 0.00 0.00 53 1006.0
20260504200901 81 180 16.0 32.0 0.00 0.00 0.00 54 1006.2
20260504200402 81 180 16.0 33.0 0.00 0.00 0.00 52 1006.2
20260504195902 81 180 21.0 33.0 0.00 0.00 0.00 53 1006.4
20260504195402 80 180 21.0 33.0 0.00 0.00 0.00 53 1006.4
20260504194901 80 180 21.0 33.0 0.00 0.00 0.00 54 1006.6
20260504194402 80 170 15.0 30.0 0.00 0.00 0.00 54 1006.7
20260504193902 80 170 15.0 30.0 0.00 0.00 0.00 53 1006.7
20260504193402 80 170 15.0 30.0 0.00 0.00 0.00 53 1006.8
20260504192901 80 200 16.0 28.0 0.00 0.00 0.00 54 1006.8
20260504191902 80 200 16.0 28.0 0.00 0.00 0.00 54 1007.0
20260504191401 80 200 16.0 28.0 0.00 0.00 0.00 54 1007.1
20260504190901 80 200 16.0 28.0 0.00 0.00 0.00 54 1007.2
20260504190402 79 200 16.0 28.0 0.00 0.00 0.00 55 1007.1
20260504185902 79 190 15.0 26.0 0.00 0.00 0.00 53 1007.2
20260504185402 79 190 15.0 26.0 0.00 0.00 0.00 54 1007.3
20260504184902 79 190 15.0 26.0 0.00 0.00 0.00 54 1007.5
20260504184402 79 190 15.0 26.0 0.00 0.00 0.00 54 1007.5
20260504183902 79 190 15.0 26.0 0.00 0.00 0.00 55 1007.6
20260504183402 79 190 15.0 30.0 0.00 0.00 0.00 55 1007.7
20260504182902 79 190 17.0 30.0 0.00 0.00 0.00 54 1007.8
20260504182401 79 190 17.0 30.0 0.00 0.00 0.00 53 1007.8
20260504181902 79 190 17.0 30.0 0.00 0.00 0.00 54 1007.9
20260504181402 79 190 17.0 30.0 0.00 0.00 0.00 55 1008.0
20260504180902 79 190 17.0 30.0 0.00 0.00 0.00 54 1008.1
20260504180401 79 190 17.0 30.0 0.00 0.00 0.00 54 1008.1
20260504175902 79 180 15.0 26.0 0.00 0.00 0.00 53 1008.3
20260504175402 79 180 15.0 26.0 0.00 0.00 0.00 55 1008.3
20260504174402 78 180 17.0 29.0 0.00 0.00 0.00 55 1008.5
20260504173402 77 180 17.0 30.0 0.00 0.00 0.00 55 1008.8
20260504172901 77 200 17.0 30.0 0.00 0.00 0.00 56 1008.8
20260504172402 77 200 17.0 30.0 0.00 0.00 0.00 55 1008.9
20260504171902 77 200 17.0 30.0 0.00 0.00 0.00 56 1009.0
20260504171401 76 200 17.0 30.0 0.00 0.00 0.00 56 1009.1
20260504170902 76 200 17.0 30.0 0.00 0.00 0.00 57 1009.2
20260504170402 76 200 17.0 32.0 0.00 0.00 0.00 54 1009.3
20260504160402 75 190 18.0 33.0 0.00 0.00 0.00 56 1009.9
20260504150401 71 200 10.0 25.0 0.00 0.00 0.00 40 1010.4
20260504140902 71 180 9.0 23.0 0.00 0.00 0.00 40 1011.0
20260504140402 71 180 9.0 23.0 0.00 0.00 0.00 40 1010.9
20260504130402 71 180 10.0 10.0 0.00 0.00 0.00 40 1011.0
20260504081902 71 180 8.0 8.0 0.00 0.00 0.00 40 1011.8
20260504080902 71 180 8.0 8.0 0.00 0.00 0.00 40 1011.8